sat.trackr.live / text

‹ back to catalog

STARLINK-2019

NORAD 47641 · 2021-012X

PAYLOAD ACTIVE UNKNOWN

§ Identity

Operator
Country
US
Launch date
2021-02-16
Launch site
AFETR
Launch vehicle
Mass (kg)
RCS (m²)

Purposes: comms

External: N2YO · Heavens-Above · Gunter

§ Orbital elements

Epoch: 2026-08-09T06:34:36.375168Z

Period
88.00 min
Inclination
53.0159°
Eccentricity
0.0005744
Mean motion
16.36344053 rev/d
Perigee alt
171.8 km
Apogee alt
179.3 km
Semi-major
6,553.7 km
B*
5.1996e-4
RAAN
258.5759°
Arg perigee
334.9676°
Mean anomaly
25.1089°
Rev number
30,587

§ Raw data

STARLINK-20191 47641U 21012X   26221.27403212  .04680537  12311-4  51996-3 0  99902 47641  53.0159 258.5759 0005744 334.9676  25.1089 16.36344053305879

JSON: /api/v1/satellites/47641 · /tle

For live sub-satellite position, see the globe view (requires WebGL).

§ Visibility from observer

Set your observer location to see the next 7 days of passes ≥ 10°. The values pass through the URL so the page stays shareable.

No JS? Fill the form by hand. The geolocation button needs JavaScript.